When you browse on this site, cookies collect data to enhance your experience and personalize the content and advertising you see.
Visit our Privacy Policy to learn more. By continuing to use the site, you agree to this use of cookies and data.
  • In United Kingdom
  • List of Countries
  • For 7 days
  • Water Temperature
  • Satellite Maps
  • Weather Map
  • Weather Widgets
  • user-avatar
    Login

    Hourly Weather Salgotarjan

    Today, 27 June, Thursday

    Time Temperature Precipitation Wind Pressure Humidity
    00:00 +23°C° 0 mm 1 mps 735 mmHg 91%
    01:00 +21°C° 0 mm 2 mps 735 mmHg 91%
    02:00 +21°C° 0 mm 2 mps 735 mmHg 91%
    03:00 +22°C° 0 mm 1 mps 734 mmHg 92%
    04:00 +22°C° 0 mm 1 mps 734 mmHg 92%
    05:00 +23°C° 0 mm 2 mps 734 mmHg 87%
    06:00 +25°C° 0 mm 2 mps 734 mmHg 81%
    07:00 +26°C° 0 mm 2 mps 734 mmHg 76%
    08:00 +28°C° 0.1 mm 2 mps 734 mmHg 72%
    09:00 +30°C° 0.1 mm 3 mps 734 mmHg 68%
    10:00 +31°C° 0.1 mm 3 mps 734 mmHg 63%
    11:00 +33°C° 0.3 mm 4 mps 733 mmHg 61%
    12:00 +33°C° 0.3 mm 5 mps 733 mmHg 58%
    13:00 +34°C° 0.3 mm 5 mps 733 mmHg 55%
    14:00 +33°C° 0.1 mm 5 mps 732 mmHg 55%
    15:00 +33°C° 0.1 mm 5 mps 732 mmHg 54%
    16:00 +32°C° 0.1 mm 5 mps 732 mmHg 54%
    17:00 +29°C° 0 mm 4 mps 732 mmHg 57%
    18:00 +26°C° 0 mm 3 mps 731 mmHg 61%
    19:00 +24°C° 0 mm 3 mps 731 mmHg 65%
    20:00 +21°C° 0 mm 2 mps 732 mmHg 64%
    21:00 +19°C° 0 mm 2 mps 732 mmHg 63%
    22:00 +18°C° 0 mm 1 mps 733 mmHg 63%
    23:00 +16°C° 0 mm 1 mps 733 mmHg 66%

    Tomorrow, 28 June, Friday

    Time Temperature Precipitation Wind Pressure Humidity
    00:00 +15°C° 0 mm 1 mps 733 mmHg 69%
    01:00 +15°C° 0 mm 1 mps 733 mmHg 72%
    02:00 +14°C° 0 mm 1 mps 733 mmHg 75%
    03:00 +13°C° 0 mm 1 mps 733 mmHg 78%
    04:00 +13°C° 0 mm 1 mps 733 mmHg 80%
    05:00 +15°C° 0 mm 1 mps 733 mmHg 75%
    06:00 +18°C° 0 mm 1 mps 734 mmHg 69%
    07:00 +20°C° 0 mm 1 mps 734 mmHg 64%
    08:00 +22°C° 0 mm 1 mps 734 mmHg 59%
    09:00 +23°C° 0 mm 1 mps 734 mmHg 53%
    10:00 +25°C° 0 mm 1 mps 735 mmHg 48%
    11:00 +25°C° 0 mm 1 mps 735 mmHg 49%
    12:00 +25°C° 0 mm 1 mps 735 mmHg 50%
    13:00 +24°C° 0 mm 1 mps 735 mmHg 51%
    14:00 +25°C° 0 mm 1 mps 734 mmHg 51%
    15:00 +25°C° 0 mm 1 mps 734 mmHg 51%
    16:00 +25°C° 0 mm 1 mps 734 mmHg 50%
    17:00 +23°C° 0 mm 1 mps 734 mmHg 58%
    18:00 +22°C° 0 mm 1 mps 734 mmHg 65%
    19:00 +19°C° 0 mm 2 mps 734 mmHg 72%
    20:00 +19°C° 0 mm 1 mps 734 mmHg 74%
    21:00 +16°C° 0 mm 1 mps 734 mmHg 75%
    22:00 +15°C° 0 mm 1 mps 734 mmHg 77%
    23:00 +15°C° 0 mm 1 mps 735 mmHg 79%

    Day after tomorrow, 29 June, Saturday

    Time Temperature Precipitation Wind Pressure Humidity
    00:00 +13°C° 0 mm 0 mps 735 mmHg 80%
    01:00 +13°C° 0 mm 0 mps 735 mmHg 81%
    02:00 +13°C° 0 mm 0 mps 735 mmHg 83%
    03:00 +12°C° 0 mm 0 mps 735 mmHg 85%
    04:00 +12°C° 0 mm 0 mps 735 mmHg 87%
    05:00 +14°C° 0 mm 0 mps 735 mmHg 81%
    06:00 +16°C° 0 mm 0 mps 735 mmHg 75%
    07:00 +20°C° 0 mm 1 mps 735 mmHg 69%
    08:00 +21°C° 0 mm 1 mps 735 mmHg 63%
    09:00 +23°C° 0 mm 1 mps 736 mmHg 57%
    10:00 +24°C° 0 mm 2 mps 736 mmHg 51%
    11:00 +25°C° 0 mm 2 mps 736 mmHg 46%
    12:00 +26°C° 0 mm 1 mps 736 mmHg 42%
    13:00 +26°C° 0 mm 1 mps 736 mmHg 38%
    14:00 +26°C° 0 mm 1 mps 735 mmHg 40%
    15:00 +26°C° 0 mm 1 mps 735 mmHg 42%
    16:00 +26°C° 0 mm 1 mps 735 mmHg 44%
    17:00 +24°C° 0 mm 1 mps 735 mmHg 54%
    18:00 +23°C° 0 mm 1 mps 735 mmHg 63%
    19:00 +21°C° 0 mm 1 mps 735 mmHg 73%
    20:00 +20°C° 0 mm 1 mps 735 mmHg 74%
    21:00 +18°C° 0 mm 1 mps 735 mmHg 74%
    22:00 +16°C° 0 mm 1 mps 735 mmHg 74%
    23:00 +16°C° 0 mm 1 mps 735 mmHg 76%

    30 June, Sunday

    Time Temperature Precipitation Wind Pressure Humidity
    00:00 +15°C° 0 mm 1 mps 735 mmHg 78%
    01:00 +13°C° 0 mm 0 mps 735 mmHg 80%
    02:00 +13°C° 0 mm 0 mps 735 mmHg 81%
    03:00 +13°C° 0 mm 0 mps 735 mmHg 82%
    04:00 +12°C° 0 mm 0 mps 735 mmHg 84%
    05:00 +15°C° 0 mm 0 mps 735 mmHg 78%
    06:00 +17°C° 0 mm 0 mps 735 mmHg 72%
    07:00 +21°C° 0 mm 1 mps 735 mmHg 66%
    08:00 +22°C° 0 mm 1 mps 735 mmHg 62%
    09:00 +24°C° 0 mm 1 mps 736 mmHg 57%
    10:00 +26°C° 0 mm 2 mps 736 mmHg 53%
    11:00 +27°C° 0 mm 2 mps 736 mmHg 51%
    12:00 +28°C° 0 mm 2 mps 736 mmHg 48%
    13:00 +28°C° 0 mm 2 mps 735 mmHg 46%
    14:00 +28°C° 0 mm 2 mps 735 mmHg 48%
    15:00 +28°C° 0 mm 2 mps 735 mmHg 49%
    16:00 +28°C° 0 mm 2 mps 735 mmHg 51%
    17:00 +27°C° 0 mm 2 mps 735 mmHg 59%
    18:00 +25°C° 0 mm 2 mps 734 mmHg 68%
    19:00 +23°C° 0 mm 1 mps 734 mmHg 76%
    20:00 +22°C° 0 mm 1 mps 734 mmHg 80%
    21:00 +21°C° 0 mm 1 mps 734 mmHg 83%
    22:00 +20°C° 0 mm 1 mps 734 mmHg 86%
    23:00 +19°C° 0 mm 1 mps 734 mmHg 87%

    1 July, Monday

    Time Temperature Precipitation Wind Pressure Humidity
    00:00 +19°C° 0 mm 1 mps 734 mmHg 88%
    01:00 +18°C° 0 mm 1 mps 734 mmHg 89%
    02:00 +18°C° 0 mm 1 mps 734 mmHg 90%
    03:00 +18°C° 0 mm 1 mps 734 mmHg 91%
    04:00 +18°C° 0 mm 1 mps 734 mmHg 92%
    05:00 +20°C° 0 mm 1 mps 734 mmHg 85%
    06:00 +22°C° 0 mm 1 mps 734 mmHg 78%
    07:00 +23°C° 0 mm 1 mps 734 mmHg 71%
    08:00 +25°C° 0 mm 2 mps 734 mmHg 66%
    09:00 +26°C° 0 mm 2 mps 734 mmHg 61%
    10:00 +28°C° 0 mm 3 mps 734 mmHg 56%
    11:00 +28°C° 0 mm 3 mps 734 mmHg 55%
    12:00 +29°C° 0 mm 3 mps 734 mmHg 54%
    13:00 +30°C° 0 mm 4 mps 734 mmHg 53%
    14:00 +30°C° 0 mm 4 mps 733 mmHg 55%
    15:00 +30°C° 0 mm 4 mps 733 mmHg 56%
    16:00 +30°C° 0 mm 4 mps 733 mmHg 58%
    17:00 +29°C° 0 mm 3 mps 732 mmHg 65%
    18:00 +27°C° 0 mm 2 mps 732 mmHg 73%
    19:00 +26°C° 0 mm 1 mps 732 mmHg 80%
    20:00 +25°C° 0 mm 1 mps 732 mmHg 81%
    21:00 +24°C° 0 mm 1 mps 732 mmHg 83%
    22:00 +23°C° 0 mm 1 mps 732 mmHg 84%
    23:00 +22°C° 0.6 mm 1 mps 731 mmHg 85%

    2 July, Tuesday

    Time Temperature Precipitation Wind Pressure Humidity
    00:00 +22°C° 0.6 mm 1 mps 731 mmHg 87%
    01:00 +22°C° 0.6 mm 1 mps 731 mmHg 89%
    02:00 +21°C° 0.4 mm 1 mps 731 mmHg 90%
    03:00 +21°C° 0.4 mm 1 mps 731 mmHg 92%
    04:00 +20°C° 0.4 mm 1 mps 731 mmHg 93%
    05:00 +21°C° 0 mm 1 mps 731 mmHg 90%
    06:00 +23°C° 0 mm 1 mps 731 mmHg 88%
    07:00 +24°C° 0 mm 1 mps 731 mmHg 85%
    08:00 +25°C° 0.1 mm 1 mps 731 mmHg 79%
    09:00 +27°C° 0.1 mm 2 mps 732 mmHg 72%
    10:00 +29°C° 0.1 mm 2 mps 732 mmHg 66%
    11:00 +29°C° 0.9 mm 3 mps 732 mmHg 64%
    12:00 +29°C° 0.9 mm 3 mps 732 mmHg 62%
    13:00 +29°C° 0.9 mm 3 mps 732 mmHg 60%
    14:00 +29°C° 0.1 mm 4 mps 732 mmHg 56%
    15:00 +30°C° 0.1 mm 4 mps 732 mmHg 52%
    16:00 +30°C° 0.1 mm 4 mps 732 mmHg 48%
    17:00 +28°C° 0 mm 3 mps 732 mmHg 56%
    18:00 +26°C° 0 mm 3 mps 732 mmHg 63%
    19:00 +23°C° 0 mm 2 mps 732 mmHg 71%
    20:00 +21°C° 0 mm 2 mps 733 mmHg 74%
    21:00 +21°C° 0 mm 1 mps 733 mmHg 76%
    22:00 +20°C° 0 mm 1 mps 733 mmHg 79%
    23:00 +19°C° 0 mm 1 mps 733 mmHg 78%
    Show more